Flag for U.S.A. Weather past 2 weeks in Bakersfield, California, U.S.A.

Now
59 °F

Overcast.


Feels Like: 58 °F
Forecast: 58 / 71 °F
Wind: 6 mph from Northwest

Location: Meadows Field

Current Time: Oct 21, 2014 at 9:04:21 AM

Latest Report: Oct 21, 2014 at 7:54 AM


Visibility: 10 mi

Pressure: 30.05 "Hg

Humidity: 67%

Dew point: 48 °F

Location of BakersfieldLocation

Historic Weather in Bakersfield — Graph

°F

Bakersfield temperature yesterday

Maximum temperature yesterday: 80 °F (at 2:54 PM)
Minimum temperature yesterday: 60 °F (at 3:54 AM)
Average temperature yesterday: 69 °F

Past Weeks' High & Low Weather Summary

 TemperatureHumidityPressure
High96 °F (Oct 6, 2:54 PM)77% (Oct 16, 4:54 AM)30.05 "Hg (Oct 16, 4:54 AM)
Low55 °F (Oct 16, 4:54 AM)5% (Oct 13, 7:54 PM)29.73 "Hg (Oct 14, 3:54 PM)
Average74 °F37%29.90 "Hg
* Reported Oct 6 7:54 AM — Oct 21 7:54 AM, Bakersfield, Weather by CustomWeather, © 2014

Note: Actual official high and low records may vary slightly from our data, if they occured in-between our weather recording intervals... More about our weather records

Advertising

Bakersfield weather history for previous 24 hours

 ConditionsComfort  
Time TempWeatherWind HumidityBarometerVisibility
7:54 AM
Oct 21
59 °FOvercast.6 mph67%30.05 "Hg10 mi
6:54 AM59 °FMostly cloudy.5 mph67%30.03 "Hg10 mi
5:56 AM60 °FOvercast.5 mph67%30.04 "Hg10 mi
4:54 AM61 °FOvercast.8 mph62%30.01 "Hg10 mi
3:54 AM62 °FOvercast.9 mph60%30.02 "Hg10 mi
2:54 AM62 °FMostly cloudy.9 mph62%30.03 "Hg10 mi
1:54 AM62 °FClear.10 mph65%30.02 "Hg10 mi
12:54 AM64 °FOvercast.10 mph63%30.00 "Hg10 mi
11:54 PM
Oct 20
65 °FPassing clouds.15 mph63%29.99 "Hg8 mi
10:54 PM66 °FClear.15 mph65%29.97 "Hg9 mi
9:54 PM70 °FClear.10 mph49%29.93 "Hg10 mi
8:54 PM70 °FClear.3 mph46%29.90 "Hg10 mi
7:54 PM73 °FClear.3 mph44%29.89 "Hg10 mi
6:54 PM75 °FSunny.No wind42%29.88 "Hg10 mi
5:54 PM78 °FSunny.6 mph37%29.85 "Hg10 mi
4:54 PM79 °FSunny.6 mph36%29.85 "Hg10 mi
3:54 PM79 °FSunny.7 mph36%29.86 "Hg10 mi
2:54 PM80 °FSunny.8 mph34%29.87 "Hg4 mi
1:54 PM76 °FSunny.3 mph42%29.88 "Hg10 mi
12:54 PM76 °FSunny.8 mph45%29.90 "Hg10 mi
11:54 AM73 °FSunny.9 mph48%29.93 "Hg10 mi
10:54 AM69 °FSunny.6 mph53%29.94 "Hg9 mi
9:54 AM66 °FSunny.3 mph56%29.95 "Hg9 mi
Weather by CustomWeather, © 2014

See weather overviewHow to use our weather pages